Terminal Aerodrome Forecast
Issued by NWS Sterling, VA

Current Version | Previous Version | Text Only | Print | Product List | Glossary On
Versions: 1 2 3 4 5 6 7 8 9 10 11 12 13 14 15 16 17 18 19 20 21 22 23 24 25 26 27 28
000
FTUS41 KLWX 160837 AAA
TAFIAD
TAF AMD
KIAD 160837Z 1609/1712 10003KT P6SM OVC028
     FM161500 16004KT P6SM OVC025
     FM162300 16004KT P6SM OVC015
     FM170100 16003KT P6SM OVC010=

USA.gov is the U.S. government's official web portal to all federal, state and local government web resources and services.